Location: Pasarilla del Rebollar
(40.6790°N, 5.0062°W)
Time: 11:51:32
(UTC+00:00)

Cosmos 2221 - Pass Details

Date: 22 April 2026
Orbit: 569 x 587 km, 82.5° (Epoch: 21 May)

Event Time Altitude Azimuth Distance (km) Brightness Sun altitude
Exits shadow 02:44:11 37° 355° (N) 899 3.6 -27.3°
Drops below altitude 10° 02:46:46 10° 4° (N) 1,878 5.7 -27.0°
Sets 02:48:58 0° 6° (N) 2,780 6.7 -26.7°
